Location: Newark
(34.9471°N, 136.1778°E)
Time: 00:56:52
(UTC+00:00)

LilacSat-2 - Pass Details

Date: 26 February 2020
Orbit: 514 x 534 km, 97.5° (Epoch: 28 March)

Event Time Altitude Azimuth Distance (km) Brightness Sun altitude
Rises 19:41:03 0° 35° (NE) 2,653 ? -22.8°
Reaches altitude 10° 19:44:07 10° 63° (ENE) 1,764 ? -22.2°
Maximum altitude 19:46:02 13° 93° (E) 1,555 ? -21.8°
Drops below altitude 10° 19:47:57 10° 124° (SE) 1,763 ? -21.4°
Sets 19:51:00 0° 151° (SSE) 2,651 ? -20.8°
